GW1230 Weather Reports


Display with metric or nautical units.
time (UTC)temp
F
wind
direction
speed
MPH
gust
MPH
rain 1hr
in
rain 24hr
in
rain mn
in
humidity
%
barometer
mb
20260504034348 72 318 1.0 1.0 0.00 0.00 0.00 39 1008.9
20260504033844 72 324 1.0 1.0 0.00 0.00 0.00 39 1008.9
20260504033343 72 339 2.0 2.0 0.00 0.00 0.00 38 1008.9
20260504032839 72 330 3.0 3.0 0.00 0.00 0.00 38 1009.0
20260504032336 72 316 2.0 2.0 0.00 0.00 0.00 38 1008.8
20260504031833 72 306 3.0 5.0 0.00 0.00 0.00 39 1008.8
20260504031330 73 336 2.0 2.0 0.00 0.00 0.00 39 1008.8
20260504030826 73 330 2.0 2.0 0.00 0.00 0.00 40 1008.7
20260504030324 73 304 1.0 2.0 0.00 0.00 0.00 41 1009.0
20260504025820 73 328 2.0 2.0 0.00 0.00 0.00 41 1009.0
20260504025317 73 331 4.0 5.0 0.00 0.00 0.00 42 1008.8
20260504024814 73 326 1.0 1.0 0.00 0.00 0.00 44 1008.8
20260504024310 73 309 3.0 3.0 0.00 0.00 0.00 45 1008.9
20260504023807 74 312 2.0 3.0 0.00 0.00 0.00 44 1009.0
20260504023303 75 342 3.0 5.0 0.00 0.00 0.00 45 1008.9
20260504022759 75 323 1.0 2.0 0.00 0.00 0.00 44 1009.0
20260504022256 75 310 1.0 1.0 0.00 0.00 0.00 45 1009.1
20260504021753 75 332 3.0 5.0 0.00 0.00 0.00 44 1009.0
20260504021250 75 331 5.0 6.0 0.00 0.00 0.00 44 1008.9
20260504020747 75 330 3.0 5.0 0.00 0.00 0.00 45 1009.2
20260504020243 75 319 1.0 3.0 0.00 0.00 0.00 44 1009.2
20260504015739 75 344 2.0 3.0 0.00 0.00 0.00 45 1009.1
20260504015236 76 331 6.0 8.0 0.00 0.00 0.00 44 1009.2
20260504014732 75 298 4.0 6.0 0.00 0.00 0.00 44 1009.3
20260504014229 76 311 6.0 7.0 0.00 0.00 0.00 43 1009.2
20260504013726 76 327 2.0 3.0 0.00 0.00 0.00 43 1009.2
20260504013224 76 322 3.0 3.0 0.00 0.00 0.00 42 1009.3
20260504012720 75 326 6.0 8.0 0.00 0.00 0.00 43 1009.3
20260504012218 75 308 7.0 8.0 0.00 0.00 0.00 42 1009.4
20260504011715 75 323 6.0 7.0 0.00 0.00 0.00 41 1009.6
20260504011212 76 322 5.0 7.0 0.00 0.00 0.00 40 1009.4
20260504010708 76 335 6.0 9.0 0.00 0.00 0.00 39 1009.4
20260504010203 76 12 9.0 13.0 0.00 0.00 0.00 39 1009.8
20260504005700 75 328 6.0 9.0 0.00 0.00 0.00 40 1009.7
20260504005157 76 3 7.0 10.0 0.00 0.00 0.00 41 1009.7
20260504004655 76 10 4.0 6.0 0.00 0.00 0.00 42 1009.5
20260504004152 76 349 5.0 6.0 0.00 0.00 0.00 41 1009.7
20260504003648 76 330 6.0 7.0 0.00 0.00 0.00 43 1009.7
20260504003145 76 354 7.0 10.0 0.00 0.00 0.00 42 1009.6
20260504002642 76 353 4.0 5.0 0.00 0.00 0.00 42 1009.8
20260504002139 77 300 3.0 5.0 0.00 0.00 0.00 42 1009.7
20260504001637 77 2 6.0 9.0 0.00 0.00 0.00 42 1009.6
20260504001133 77 310 4.0 5.0 0.00 0.00 0.00 42 1009.6
20260504000630 79 326 5.0 6.0 0.00 0.00 0.00 42 1009.6
20260504000127 78 323 1.0 1.0 0.00 0.00 0.00 42 1009.9
20260503235626 78 294 3.0 6.0 0.00 0.00 0.00 44 1009.8
20260503235122 77 318 2.0 3.0 0.00 0.00 0.00 44 1009.8
20260503234620 78 311 4.0 7.0 0.00 0.00 0.00 44 1010.1
20260503234118 78 313 1.0 1.0 0.00 0.00 0.00 44 1010.0
20260503233615 77 341 3.0 3.0 0.00 0.00 0.00 44 1010.0
20260503233110 77 309 4.0 5.0 0.00 0.00 0.00 44 1010.1
20260503232607 77 342 4.0 8.0 0.00 0.00 0.00 45 1010.1
20260503232105 77 297 6.0 8.0 0.00 0.00 0.00 44 1010.3
20260503231603 79 318 4.0 5.0 0.00 0.00 0.00 43 1010.4
20260503231059 78 317 2.0 2.0 0.00 0.00 0.00 44 1010.5
20260503230555 78 19 2.0 2.0 0.00 0.00 0.00 44 1010.6
20260503230053 78 326 2.0 2.0 0.00 0.00 0.00 43 1010.5
20260503225550 77 348 7.0 8.0 0.00 0.00 0.00 44 1010.5
20260503225045 77 332 7.0 8.0 0.00 0.00 0.00 44 1010.7
20260503224543 80 261 3.0 5.0 0.00 0.00 0.00 42 1010.7
20260503224040 77 327 4.0 6.0 0.00 0.00 0.00 45 1010.9
20260503223539 77 313 4.0 6.0 0.00 0.00 0.00 44 1011.1
20260503223033 76 294 2.0 2.0 0.00 0.00 0.00 45 1011.1
20260503222532 76 338 9.0 11.0 0.00 0.00 0.00 46 1011.2
20260503222030 77 298 5.0 8.0 0.00 0.00 0.00 45 1011.0
20260503221528 76 348 7.0 9.0 0.00 0.00 0.00 45 1011.4
20260503221025 76 30 5.0 7.0 0.00 0.00 0.00 45 1011.4
20260503220521 76 326 7.0 10.0 0.00 0.00 0.00 45 1011.2
20260503220018 76 326 3.0 3.0 0.00 0.00 0.00 45 1011.5
20260503215515 75 321 2.0 3.0 0.00 0.00 0.00 48 1011.4
20260503215012 76 332 4.0 6.0 0.00 0.00 0.00 49 1011.6
20260503214510 76 339 3.0 6.0 0.00 0.00 0.00 49 1011.3
20260503214007 76 329 3.0 3.0 0.00 0.00 0.00 49 1011.5
20260503213505 76 289 4.0 6.0 0.00 0.00 0.00 49 1011.5
20260503213001 76 335 2.0 2.0 0.00 0.00 0.00 48 1011.4
20260503212459 76 309 1.0 2.0 0.00 0.00 0.00 49 1011.6
20260503211956 78 357 7.0 9.0 0.00 0.00 0.00 45 1011.5
20260503211453 77 329 6.0 8.0 0.00 0.00 0.00 42 1011.5
20260503210948 77 251 5.0 7.0 0.00 0.00 0.00 44 1011.6
20260503210445 77 348 2.0 3.0 0.00 0.00 0.00 43 1011.7
20260503205940 76 318 4.0 6.0 0.00 0.00 0.00 43 1011.8
20260503205437 77 292 3.0 5.0 0.00 0.00 0.00 41 1011.8
20260503204933 75 318 5.0 7.0 0.00 0.00 0.00 42 1011.9
20260503204431 76 299 9.0 11.0 0.00 0.00 0.00 41 1012.1
20260503203928 75 344 5.0 9.0 0.00 0.00 0.00 42 1012.0
20260503203425 77 319 1.0 1.0 0.00 0.00 0.00 41 1012.0
20260503202922 76 294 3.0 5.0 0.00 0.00 0.00 42 1012.2
20260503202420 75 32 9.0 10.0 0.00 0.00 0.00 44 1012.3
20260503201918 74 22 6.0 8.0 0.00 0.00 0.00 44 1012.2
20260503201415 75 321 7.0 10.0 0.00 0.00 0.00 44 1012.4
20260503200913 75 340 5.0 7.0 0.00 0.00 0.00 44 1012.6
20260503200409 75 285 2.0 2.0 0.00 0.00 0.00 44 1012.3
20260503195905 75 327 6.0 7.0 0.00 0.00 0.00 46 1012.6
20260503195403 74 5 10.0 14.0 0.00 0.00 0.00 48 1012.6
20260503194859 74 304 5.0 7.0 0.00 0.00 0.00 48 1012.6
20260503194356 75 332 2.0 3.0 0.00 0.00 0.00 49 1012.7
20260503193852 75 313 7.0 10.0 0.00 0.00 0.00 47 1012.6
20260503193347 75 312 1.0 1.0 0.00 0.00 0.00 47 1012.6
20260503192843 75 18 5.0 7.0 0.00 0.00 0.00 47 1012.7
20260503192339 74 7 6.0 8.0 0.00 0.00 0.00 49 1012.9
20260503191836 74 3 3.0 3.0 0.00 0.00 0.00 51 1012.9
20260503191333 75 328 4.0 5.0 0.00 0.00 0.00 51 1012.9
20260503190829 74 3 3.0 6.0 0.00 0.00 0.00 51 1013.2
20260503190327 75 348 1.0 1.0 0.00 0.00 0.00 52 1013.2
20260503185824 75 287 3.0 6.0 0.00 0.00 0.00 50 1013.2
20260503185319 76 318 5.0 7.0 0.00 0.00 0.00 51 1013.2
20260503184814 73 353 2.0 2.0 0.00 0.00 0.00 52 1013.4
20260503184310 72 307 3.0 5.0 0.00 0.00 0.00 55 1013.3
20260503183806 73 350 8.0 9.0 0.00 0.00 0.00 54 1013.4
20260503183304 72 314 1.0 2.0 0.00 0.00 0.00 55 1013.3
20260503182801 72 336 7.0 9.0 0.00 0.00 0.00 56 1013.3
20260503182300 72 301 9.0 10.0 0.00 0.00 0.00 55 1013.3
20260503181756 72 317 6.0 9.0 0.00 0.00 0.00 55 1013.4
20260503181253 71 328 3.0 8.0 0.00 0.00 0.00 57 1013.6
20260503180744 72 316 2.0 3.0 0.00 0.00 0.00 56 1013.4
20260503180242 72 336 3.0 3.0 0.00 0.00 0.00 56 1013.4
20260503175738 72 314 2.0 2.0 0.00 0.00 0.00 55 1013.6
20260503175236 71 315 4.0 6.0 0.00 0.00 0.00 56 1013.5
20260503174732 71 316 7.0 8.0 0.00 0.00 0.00 57 1013.3
20260503174230 71 330 5.0 7.0 0.00 0.00 0.00 58 1013.6
20260503173725 70 351 6.0 8.0 0.00 0.00 0.00 58 1013.6
20260503173221 70 282 5.0 7.0 0.00 0.00 0.00 58 1013.6
20260503172718 70 301 4.0 6.0 0.00 0.00 0.00 59 1013.9
20260503172215 70 317 2.0 2.0 0.00 0.00 0.00 60 1013.9
20260503171711 70 271 5.0 8.0 0.00 0.00 0.00 59 1013.7
20260503171209 71 328 2.0 3.0 0.00 0.00 0.00 57 1013.6
20260503170706 69 347 0.0 1.0 0.00 0.00 0.00 59 1013.6
20260503170203 69 314 2.0 2.0 0.00 0.00 0.00 60 1013.9
20260503160124 69 8 3.0 3.0 0.00 0.00 0.00 59 1014.1
20260503150554 65 5 4.0 5.0 0.00 0.00 0.00 64 1014.3
20260503130944 57 36 1.0 1.0 0.00 0.00 0.00 77 1013.9
20260503130442 57 3 0.0 0.0 0.00 0.00 0.00 77 1013.9
20260503110332 59 44 4.0 6.0 0.00 0.00 0.00 70 1014.0
20260503100258 59 326 1.0 1.0 0.00 0.00 0.00 69 1014.3
20260503090218 61 21 2.0 2.0 0.00 0.00 0.00 60 1014.2
20260503081145 62 37 2.0 2.0 0.00 0.00 0.00 58 1014.3
20260503080641 63 59 1.0 2.0 0.00 0.00 0.00 58 1014.4
20260503080138 63 50 1.0 1.0 0.00 0.00 0.00 58 1014.4
20260503072615 63 3 1.0 1.0 0.00 0.00 0.00 58 1014.2
20260503072112 63 19 1.0 1.0 0.00 0.00 0.00 58 1014.3
20260503071608 63 351 1.0 1.0 0.00 0.00 0.00 57 1014.2
20260503071105 63 356 1.0 1.0 0.00 0.00 0.00 57 1014.2
20260503070602 63 25 0.0 1.0 0.00 0.00 0.00 58 1014.2
20260503055015 64 60 3.0 3.0 0.00 0.00 0.00 56 1013.9
20260503054510 65 37 2.0 2.0 0.00 0.00 0.00 57 1013.9
20260503054008 65 35 2.0 2.0 0.00 0.00 0.00 55 1014.2
20260503053506 66 53 2.0 2.0 0.00 0.00 0.00 55 1014.2
20260503053004 65 63 2.0 3.0 0.00 0.00 0.00 55 1014.0
20260503052500 65 7 1.0 1.0 0.00 0.00 0.00 56 1014.1
20260503051956 65 0 0.0 1.0 0.00 0.00 0.00 55 1014.0
20260503051452 65 30 1.0 1.0 0.00 0.00 0.00 55 1014.1
20260503050950 65 346 0.0 0.0 0.00 0.00 0.00 56 1013.9
20260503050445 65 2 1.0 1.0 0.00 0.00 0.00 56 1014.2
20260503045943 66 41 1.0 2.0 0.00 0.00 0.00 55 1014.2
20260503045440 66 71 3.0 3.0 0.00 0.00 0.00 55 1014.1
20260503044937 66 73 2.0 3.0 0.00 0.00 0.00 54 1013.9
20260503044434 66 76 1.0 2.0 0.00 0.00 0.00 54 1014.1
20260503043932 66 69 1.0 2.0 0.00 0.00 0.00 53 1013.9
20260503043427 66 32 1.0 1.0 0.00 0.00 0.00 54 1014.0
20260503042924 66 46 1.0 1.0 0.00 0.00 0.00 53 1013.7
20260503042421 66 21 1.0 2.0 0.00 0.00 0.00 53 1013.4
20260503041917 67 74 2.0 3.0 0.00 0.00 0.00 53 1013.7
20260503041415 67 62 1.0 1.0 0.00 0.00 0.00 52 1013.6
20260503040912 67 69 1.0 2.0 0.00 0.00 0.00 53 1013.5
20260503040409 67 12 1.0 1.0 0.00 0.00 0.00 53 1013.5
20260503035906 67 61 1.0 2.0 0.00 0.00 0.00 53 1013.5
20260503035403 67 18 3.0 3.0 0.00 0.00 0.00 53 1013.2
20260503034900 67 328 0.0 0.0 0.00 0.00 0.00 53 1013.3